AFRISTAR

Last updated on Jan. 5, 2019, 2:57 a.m. UTC

1 25515U 98063A   19003.93948792 -.00000275  00000-0  00000+0 0  9992
2 25515   4.4324  66.7525 0006665 240.4852 269.3496  0.99009023 73793
UTC
Height (km)
Latitude
Longitude
Inclination
Orbital Period
UTC large
Height (km)
Speed (km/s)
/
Latitude / Longitude
Inclination (degrees)
Orbital Period (minutes)
Azimuth
Elevation
Range (km)
Doppler Factor
iOS Compass Heading
iOS Angle

Next 30 passes for location: Hong Kong

Rise time Rise Azimuth (degrees) Set time Set Azimuth (degrees) Duration Max altitude (degrees)

No matching passes for this satellites